TimeCST,TemperatureF,Dew PointF,Humidity,Sea Level PressureIn,VisibilityMPH,Wind Direction,Wind SpeedMPH,Gust SpeedMPH,PrecipitationIn,Events,Conditions,WindDirDegrees,DateUTC
12:19 AM,73.4,66.2,78,29.88,8.0,SSW,16.1,-,0.00,Rain,Light Rain,210,2013-02-22 06:19:00
12:53 AM,73.0,66.9,81,29.86,7.0,SSW,16.1,-,0.00,,Overcast,200,2013-02-22 06:53:00
1:02 AM,73.4,66.2,78,29.88,7.0,SSW,13.8,-,N/A,,Mostly Cloudy,200,2013-02-22 07:02:00
1:53 AM,72.0,66.9,84,29.86,6.0,SSW,12.7,-,N/A,,Haze,210,2013-02-22 07:53:00
2:13 AM,71.6,66.2,83,29.87,6.0,SSW,13.8,-,N/A,,Haze,210,2013-02-22 08:13:00
2:42 AM,71.6,66.2,83,29.87,5.0,SSW,13.8,-,N/A,,Haze,210,2013-02-22 08:42:00
2:53 AM,72.0,66.0,81,29.85,5.0,SSW,12.7,-,N/A,,Haze,210,2013-02-22 08:53:00
3:31 AM,71.6,66.2,83,29.87,5.0,SW,13.8,-,N/A,,Haze,220,2013-02-22 09:31:00
3:41 AM,71.6,66.2,83,29.87,4.0,SW,11.5,-,N/A,,Haze,220,2013-02-22 09:41:00
3:53 AM,71.1,66.0,84,29.85,4.0,SW,9.2,-,N/A,,Haze,220,2013-02-22 09:53:00
4:07 AM,69.8,64.4,83,29.87,1.8,WSW,6.9,-,N/A,,Haze,240,2013-02-22 10:07:00
4:12 AM,68.0,64.4,88,29.87,0.8,WSW,6.9,-,N/A,,Overcast,250,2013-02-22 10:12:00
4:30 AM,66.2,62.6,88,29.87,0.2,West,3.5,-,N/A,Fog,Fog,270,2013-02-22 10:30:00
4:53 AM,68.0,64.0,87,29.86,0.2,NW,4.6,-,N/A,Fog,Fog,320,2013-02-22 10:53:00
5:06 AM,66.2,62.6,88,29.89,1.0,North,12.7,-,N/A,,Haze,360,2013-02-22 11:06:00
5:16 AM,66.2,60.8,83,29.89,2.0,NNE,12.7,-,N/A,,Haze,20,2013-02-22 11:16:00
5:27 AM,64.4,60.8,88,29.90,4.0,NNE,11.5,-,N/A,,Overcast,30,2013-02-22 11:27:00
5:53 AM,64.0,60.1,87,29.90,5.0,NNE,12.7,-,0.02,Rain,Light Rain,30,2013-02-22 11:53:00
6:27 AM,64.4,59.0,83,29.93,6.0,NNE,11.5,-,0.00,,Haze,20,2013-02-22 12:27:00
6:53 AM,63.0,59.0,87,29.91,7.0,NE,10.4,-,0.01,,Overcast,40,2013-02-22 12:53:00
7:20 AM,64.4,59.0,83,29.93,6.0,NE,10.4,-,N/A,,Haze,50,2013-02-22 13:20:00
7:53 AM,64.0,59.0,84,29.94,7.0,NE,10.4,-,N/A,,Overcast,50,2013-02-22 13:53:00
8:12 AM,64.4,59.0,83,29.96,1.5,NE,12.7,-,0.12,Rain,Rain,50,2013-02-22 14:12:00
8:21 AM,64.4,59.0,83,29.96,7.0,ENE,11.5,-,0.25,Rain,Light Rain,60,2013-02-22 14:21:00
8:53 AM,63.0,59.0,87,29.96,5.0,NNE,9.2,-,0.27,Rain,Light Rain,20,2013-02-22 14:53:00
9:53 AM,64.0,53.1,67,29.96,10.0,NE,15.0,-,0.00,,Overcast,40,2013-02-22 15:53:00
10:53 AM,64.4,53.6,68,29.98,9.0,NE,13.8,-,N/A,Rain,Light Rain,50,2013-02-22 16:53:00
11:53 AM,64.0,54.0,70,29.94,10.0,NE,9.2,-,N/A,,Overcast,50,2013-02-22 17:53:00
12:53 PM,64.9,53.1,65,29.92,10.0,NE,5.8,-,0.00,Rain,Light Rain,40,2013-02-22 18:53:00
1:53 PM,64.9,54.0,68,29.91,10.0,East,4.6,-,0.00,Rain,Light Rain,90,2013-02-22 19:53:00
2:04 PM,64.4,53.6,68,29.92,10.0,East,6.9,-,0.01,,Overcast,90,2013-02-22 20:04:00
2:21 PM,66.2,53.6,64,29.92,10.0,ENE,3.5,-,0.01,,Overcast,60,2013-02-22 20:21:00
2:53 PM,66.0,53.1,63,29.89,10.0,ENE,8.1,-,0.01,,Overcast,60,2013-02-22 20:53:00
3:53 PM,64.9,54.0,68,29.88,10.0,NNE,5.8,-,0.00,,Overcast,30,2013-02-22 21:53:00
4:53 PM,64.0,54.0,70,29.88,10.0,ENE,9.2,-,N/A,,Overcast,60,2013-02-22 22:53:00
5:53 PM,64.0,55.0,73,29.88,10.0,East,3.5,-,N/A,,Overcast,90,2013-02-22 23:53:00
6:53 PM,64.0,55.0,73,29.89,10.0,NNE,8.1,-,N/A,,Overcast,30,2013-02-23 00:53:00
7:37 PM,62.6,55.4,77,29.91,10.0,NNE,10.4,-,N/A,,Overcast,20,2013-02-23 01:37:00
7:53 PM,63.0,54.0,72,29.88,6.0,NE,10.4,-,N/A,,Haze,50,2013-02-23 01:53:00
8:53 PM,63.0,55.9,78,29.90,8.0,NNE,5.8,-,N/A,,Overcast,30,2013-02-23 02:53:00
9:43 PM,62.6,57.2,82,29.93,3.0,NE,3.5,-,0.03,Rain,Light Rain,50,2013-02-23 03:43:00
9:50 PM,62.6,55.4,77,29.95,2.0,NW,20.7,-,0.08,Rain,Light Rain,320,2013-02-23 03:50:00
9:53 PM,62.1,55.9,80,29.93,2.5,NNW,19.6,-,0.09,Rain,Light Rain,340,2013-02-23 03:53:00
10:01 PM,62.6,55.4,77,29.92,4.0,NNE,12.7,-,0.00,Rain,Light Rain,30,2013-02-23 04:01:00
10:12 PM,62.6,55.4,77,29.92,7.0,NNE,12.7,-,0.00,,Overcast,20,2013-02-23 04:12:00
10:45 PM,62.6,55.4,77,29.92,2.5,Variable,6.9,34.5,0.04,Rain,Rain,0,2013-02-23 04:45:00
10:53 PM,62.1,55.9,80,29.91,3.0,North,6.9,16.1,0.04,Rain,Light Rain,10,2013-02-23 04:53:00
11:00 PM,62.6,55.4,77,29.92,3.0,NE,8.1,-,0.01,Rain,Light Rain,50,2013-02-23 05:00:00
11:53 PM,60.1,55.0,83,29.89,4.0,North,12.7,-,0.05,Rain,Light Rain,10,2013-02-23 05:53:00